Location: Binningen
(47.7924°N, 8.7261°E)
Time: 04:49:24
(UTC+00:00)

Cosmos 1048 Rocket - Pass Details

Date: 17 May 2021
Orbit: 743 x 791 km, 74.0° (Epoch: 14 June)

Event Time Altitude Azimuth Distance (km) Brightness Sun altitude
Rises 21:56:45 0° 337° (NNW) 3,276 8.9 -20.0°
Reaches altitude 10° 21:59:09 10° 337° (NNW) 2,337 7.7 -20.2°
Maximum altitude 22:04:29 89° 249° (WSW) 776 3.9 -20.5°
Enters shadow 22:06:10 45° 160° (SSE) 1,044 4.2 -20.6°
